Date String (YYYY-MM-DD hh:mm:ss) UTC,Instrument flags,Ambient pressure (hPa),Sample flow (lpm),Bypass flow (lpm),Sample temperature (°C),Ambient temperature (°C),ASC tube jacket temperature (°C),LED temperature (°C),Box temperature (°C),Sample RH (%),Span deviation,Mass concentration (μg/m³),Mass concentration (μg/m³),Mass concentration (μg/m³)
DateTimeUTC,F1_M11,P_M11,Q1_M11,Q2_M11,T1_M11,T2_M11,T3_M11,T4_M11,T5_M11,U1_M11,ZSPAN_M11,X0_M11,X2_M11,X1_M11
2022-03-10 06:00:00,,0824.2,5.00,0.00,21.2,19.9,00.0,30.5,22.6,05.9,0000.0,0004.19,0003.14,0002.74
2022-03-10 06:01:00,,0824.2,5.00,0.00,21.2,20.5,00.0,30.5,22.7,05.9,0000.0,0004.13,0003.12,0002.71
2022-03-10 06:02:00,,0824.2,4.99,0.00,21.4,21.5,00.0,30.5,23.0,05.9,0000.0,0004.10,0003.09,0002.68
2022-03-10 06:03:00,,0824.1,5.01,0.00,21.5,22.4,00.0,30.5,23.3,05.8,0000.0,0004.00,0003.04,0002.66
2022-03-10 06:04:00,,0824.1,5.01,0.00,21.6,22.4,00.0,30.6,23.5,05.8,0000.0,0003.87,0002.97,0002.62
2022-03-10 06:05:00,,0824.1,5.00,0.00,21.6,21.8,00.0,30.6,23.3,05.8,0000.0,0003.82,0002.95,0002.61
2022-03-10 06:06:00,,0824.1,5.00,0.00,21.5,21.2,00.0,30.5,23.0,05.8,0000.0,0003.81,0002.94,0002.60
2022-03-10 06:07:00,,0824.1,5.00,0.00,21.4,20.6,00.0,30.5,22.8,05.8,0000.0,0003.81,0002.94,0002.59
2022-03-10 06:08:00,,0824.1,5.01,0.00,21.3,20.1,00.0,30.5,22.6,05.9,0000.0,0003.87,0002.91,0002.58
2022-03-10 06:09:00,,0824.1,5.00,0.00,21.2,19.9,00.0,30.4,22.5,05.9,0000.0,0003.88,0002.89,0002.58
2022-03-10 06:10:00,,0824.0,5.00,0.00,21.1,19.9,00.0,30.4,22.5,05.9,0000.0,0003.85,0002.90,0002.59
2022-03-10 06:11:00,,0824.1,5.01,0.00,21.2,21.0,00.0,30.4,22.8,05.9,0000.0,0003.84,0002.92,0002.61
2022-03-10 06:12:00,,0824.1,5.00,0.00,21.4,21.9,00.0,30.4,23.2,05.8,0000.0,0003.85,0002.93,0002.61
2022-03-10 06:13:00,,0824.0,4.98,0.00,21.6,22.6,00.0,30.5,23.5,05.8,0000.0,0003.85,0002.94,0002.60
2022-03-10 06:14:00,,0824.0,5.01,0.00,21.6,22.3,00.0,30.5,23.5,05.7,0000.0,0003.97,0002.97,0002.61
2022-03-10 06:15:00,,0824.1,4.99,0.00,21.6,21.8,00.0,30.5,23.4,05.7,0000.0,0004.04,0003.00,0002.60
2022-03-10 06:16:00,,0824.1,5.01,0.00,21.5,21.3,00.0,30.5,23.2,05.8,0000.0,0004.18,0003.04,0002.60
2022-03-10 06:17:00,,0824.1,5.01,0.00,21.5,20.8,00.0,30.5,23.1,05.7,0000.0,0004.22,0003.04,0002.58
2022-03-10 06:18:00,,0824.1,5.00,0.00,21.4,20.5,00.0,30.5,22.9,05.8,0000.0,0004.23,0003.02,0002.56
2022-03-10 06:19:00,,0824.1,5.00,0.00,21.3,20.2,00.0,30.4,22.8,05.8,0000.0,0004.11,0002.99,0002.55
2022-03-10 06:20:00,,0824.0,5.00,0.00,21.3,20.0,00.0,30.4,22.7,05.8,0000.0,0003.96,0002.98,0002.55
2022-03-10 06:21:00,,0824.0,5.00,0.00,21.2,20.4,00.0,30.4,22.8,05.8,0000.0,0003.98,0002.97,0002.55
2022-03-10 06:22:00,,0823.9,5.01,0.00,21.4,21.5,00.0,30.4,23.1,05.8,0000.0,0003.90,0002.94,0002.56
2022-03-10 06:23:00,,0823.9,5.01,0.00,21.5,22.4,00.0,30.5,23.4,05.7,0000.0,0003.84,0002.93,0002.59
2022-03-10 06:24:00,,0823.9,4.99,0.00,21.7,22.8,00.0,30.5,23.7,05.7,0000.0,0003.98,0003.01,0002.64
2022-03-10 06:25:00,,0823.9,5.00,0.00,21.7,22.3,00.0,30.6,23.6,05.6,0000.0,0003.97,0003.03,0002.68
2022-03-10 06:26:00,,0823.9,4.99,0.00,21.7,21.7,00.0,30.6,23.4,05.6,0000.0,0004.09,0003.07,0002.71
2022-03-10 06:27:00,,0824.0,5.00,0.00,21.6,21.2,00.0,30.5,23.2,05.7,0000.0,0004.05,0003.06,0002.74
2022-03-10 06:28:00,,0824.0,5.01,0.00,21.5,20.8,00.0,30.5,23.1,05.7,0000.0,0003.98,0003.06,0002.77
2022-03-10 06:29:00,,0824.0,5.00,0.00,21.5,20.4,00.0,30.5,23.0,05.7,0000.0,0003.98,0003.09,0002.81
2022-03-10 06:30:00,,0823.9,5.00,0.00,21.4,20.1,00.0,30.5,22.9,05.7,0000.0,0004.08,0003.13,0002.85
2022-03-10 06:31:00,,0823.9,5.01,0.00,21.3,20.0,00.0,30.5,22.8,05.7,0000.0,0004.13,0003.15,0002.87
2022-03-10 06:32:00,,0823.9,5.00,0.00,21.3,20.8,00.0,30.5,22.9,05.7,0000.0,0004.08,0003.15,0002.88
2022-03-10 06:33:00,,0823.9,5.00,0.00,21.5,21.8,00.0,30.5,23.2,05.7,0000.0,0004.19,0003.18,0002.88
2022-03-10 06:34:00,,0823.9,5.01,0.00,21.6,22.4,00.0,30.5,23.5,05.6,0000.0,0004.28,0003.19,0002.87
2022-03-10 06:35:00,,0823.9,5.00,0.00,21.7,22.0,00.0,30.6,23.5,05.6,0000.0,0004.23,0003.19,0002.86
2022-03-10 06:36:00,,0823.8,4.99,0.00,21.6,21.5,00.0,30.5,23.3,05.6,0000.0,0004.19,0003.19,0002.84
2022-03-10 06:37:00,,0823.8,4.99,0.00,21.6,21.0,00.0,30.5,23.2,05.6,0000.0,0004.08,0003.18,0002.83
2022-03-10 06:38:00,,0823.8,5.00,0.00,21.5,20.7,00.0,30.5,23.1,05.6,0000.0,0004.21,0003.19,0002.82
2022-03-10 06:39:00,,0823.8,5.01,0.00,21.4,20.4,00.0,30.5,23.0,05.7,0000.0,0004.23,0003.19,0002.81
2022-03-10 06:40:00,,0823.8,4.99,0.00,21.4,20.2,00.0,30.5,22.9,05.7,0000.0,0004.29,0003.20,0002.80
2022-03-10 06:41:00,,0823.7,4.99,0.00,21.3,20.3,00.0,30.5,22.9,05.7,0000.0,0004.27,0003.20,0002.79
2022-03-10 06:42:00,,0823.7,5.00,0.00,21.4,21.3,00.0,30.5,23.1,05.7,0000.0,0004.28,0003.20,0002.78
2022-03-10 06:43:00,,0823.7,5.01,0.00,21.6,22.3,00.0,30.5,23.4,05.6,0000.0,0004.26,0003.19,0002.77
2022-03-10 06:44:00,,0823.7,4.99,0.00,21.8,22.8,00.0,30.6,23.7,05.6,0000.0,0004.18,0003.18,0002.77
2022-03-10 06:45:00,,0823.6,5.00,0.00,21.8,22.5,00.0,30.6,23.7,05.5,0000.0,0004.10,0003.16,0002.77
2022-03-10 06:46:00,,0823.6,4.99,0.00,21.8,22.0,00.0,30.6,23.6,05.5,0000.0,0004.02,0003.13,0002.76
2022-03-10 06:47:00,,0823.7,5.01,0.00,21.8,21.5,00.0,30.6,23.4,05.5,0000.0,0004.15,0003.13,0002.76
2022-03-10 06:48:00,,0823.7,5.00,0.00,21.7,21.1,00.0,30.6,23.3,05.5,0000.0,0004.18,0003.12,0002.74
2022-03-10 06:49:00,,0823.7,5.00,0.00,21.7,20.8,00.0,30.6,23.2,05.5,0000.0,0004.10,0003.09,0002.73
2022-03-10 06:50:00,,0823.6,5.01,0.00,21.6,20.5,00.0,30.6,23.1,05.6,0000.0,0004.11,0003.09,0002.73
2022-03-10 06:51:00,,0823.7,5.00,0.00,21.5,20.3,00.0,30.6,23.0,05.6,0000.0,0004.04,0003.06,0002.72
2022-03-10 06:52:00,,0823.6,4.99,0.00,21.5,20.2,00.0,30.6,23.0,05.6,0000.0,0003.97,0003.03,0002.71
2022-03-10 06:53:00,,0823.6,5.01,0.00,21.5,21.2,00.0,30.6,23.2,05.6,0000.0,0003.89,0003.01,0002.71
2022-03-10 06:54:00,,0823.6,4.99,0.00,21.7,22.1,00.0,30.6,23.5,05.5,0000.0,0003.92,0003.02,0002.71
2022-03-10 06:55:00,,0823.7,5.00,0.00,21.8,22.4,00.0,30.7,23.7,05.5,0000.0,0004.02,0003.04,0002.71
2022-03-10 06:56:00,,0823.7,4.99,0.00,21.8,22.1,00.0,30.7,23.6,05.5,0000.0,0004.12,0003.07,0002.71
2022-03-10 06:57:00,,0823.6,5.00,0.00,21.8,21.6,00.0,30.7,23.5,05.5,0000.0,0004.11,0003.09,0002.73
2022-03-10 06:58:00,,0823.7,4.99,0.00,21.7,21.2,00.0,30.7,23.4,05.5,0000.0,0003.95,0003.08,0002.74
2022-03-10 06:59:00,,0823.6,5.02,0.00,21.7,20.8,00.0,30.7,23.3,05.5,0000.0,0003.94,0003.10,0002.78
